Weather History for Yellowstone, WY

Change the Weather History Date:

Wednesday, January 8, 2014

  Actual Average Record
Temperature  
Mean Temperature 20 °F 13 °F  
Max Temperature 25 °F 24 °F 36 °F (2002)
Min Temperature 14 °F 2 °F -28 °F (2010)
Degree Days  
Heating Degree Days 45 52  
Month to date heating degree days 450 416  
Since 1 July heating degree days 5387 5326  
Cooling Degree Days 0 0  
Month to date cooling degree days 0 0  
Year to date cooling degree days 0 0  
Moisture  
Dew Point 16 °F    
Average Humidity 89    
Maximum Humidity 96    
Minimum Humidity 81    
Precipitation  
Precipitation 0.03 in 0.09 in 1.00 in (2005)
Month to date precipitation 0.25 0.65  
Year to date precipitation 0.25 0.65  
Sea Level Pressure  
Sea Level Pressure 30.12 in    
Wind  
Wind Speed 1 mph (West)    
Max Wind Speed 8 mph    
Max Gust Speed 15 mph    
T = Trace of Precipitation, MM = Missing Value Source: NWS Daily Summary

Daily Weather History Graph

Daily Weather History Graph

Search for Another Location

Airport:

Trip Planner

Search our weather history database for the weather conditions in past years. The results will help you decide how hot, cold, wet, or windy it might be!

Date:

Astronomy

Jan. 08, 2014 Rise Set
Actual Time 7:57 AM MST 4:59 PM MST
Civil Twilight 7:24 AM MST 5:32 PM MST
Nautical Twilight 6:48 AM MST 6:09 PM MST
Astronomical Twilight 6:13 AM MST 6:44 PM MST
Moon 12:01 PM MST (1/8) 12:58 AM MST (1/8)
Length of Visible Light 10h 07m
Length of Day
9h 02m
First Quarter, 56% of the Moon is Illuminated
Jan 8
First Quarter
Jan 15
Full
Jan 23
Last Quarter
Jan 30
New
Feb 6
First Quarter

Hourly Weather History & Observations

Time (MST) Temp. Windchill Dew Point Humidity Pressure Visibility Wind Dir Wind Speed Gust Speed Precip Events Conditions
12:56 AM 16.0 °F - 12.9 °F 88% 30.17 in - Calm Calm - N/A   Unknown
1:56 AM 16.0 °F - 12.9 °F 88% 30.16 in - Calm Calm - N/A   Unknown
2:56 AM 16.0 °F - 12.9 °F 88% 30.18 in - Calm Calm - N/A   Unknown
3:56 AM 16.0 °F - 12.9 °F 88% 30.17 in - Calm Calm - N/A   Unknown
4:56 AM 15.1 °F - 12.9 °F 91% 30.17 in - Calm Calm - 0.01 in   Unknown
5:56 AM 14.0 °F - 12.0 °F 92% 30.16 in - Calm Calm - N/A   Unknown
6:56 AM 15.1 °F - 12.0 °F 88% 30.15 in - Calm Calm - N/A   Unknown
7:56 AM 15.1 °F - 12.9 °F 91% 30.15 in - Calm Calm - N/A   Unknown
8:56 AM 17.1 °F - 14.0 °F 88% 30.17 in - Calm Calm - N/A   Unknown
9:56 AM 19.9 °F - 15.1 °F 81% 30.16 in - Calm Calm - N/A   Unknown
10:56 AM 19.9 °F - 17.1 °F 89% 30.14 in - Calm Calm - N/A   Unknown
11:56 AM 21.9 °F - 18.0 °F 85% 30.13 in - Calm Calm - N/A   Unknown
12:56 PM 21.9 °F - 19.0 °F 89% 30.10 in - Calm Calm - N/A   Unknown
1:56 PM 23.0 °F - 19.9 °F 88% 30.06 in - Calm Calm - 0.01 in   Unknown
2:56 PM 25.0 °F 19.3 °F 21.0 °F 85% 30.05 in - Variable 4.6 mph - N/A   Unknown
3:56 PM 24.1 °F - 19.9 °F 84% 30.08 in - North - - N/A   Unknown
4:56 PM 23.0 °F 17.0 °F 19.0 °F 85% 30.09 in - Variable 4.6 mph - 0.01 in   Unknown
5:56 PM 21.9 °F 17.2 °F 18.0 °F 85% 30.10 in - Variable 3.5 mph - N/A   Unknown
6:56 PM 21.0 °F 16.2 °F 18.0 °F 88% 30.10 in - Variable 3.5 mph - N/A   Unknown
7:56 PM 21.0 °F 16.2 °F 18.0 °F 88% 30.09 in - Variable 3.5 mph - N/A   Unknown
8:56 PM 19.9 °F - 17.1 °F 89% 30.09 in - Calm Calm - N/A   Unknown
9:56 PM 19.0 °F 9.0 °F 16.0 °F 88% 30.07 in - West 8.1 mph - N/A   Unknown
10:56 PM 19.0 °F - 16.0 °F 88% 30.04 in - Calm Calm - N/A   Unknown
11:56 PM 19.9 °F 13.4 °F 17.1 °F 89% 30.01 in - Variable 4.6 mph - N/A   Unknown